• En España
  • Lista de países
  • Para 7 días
  • Temperatura del agua
  • Mapa Satelital
  • El tiempo en el mapa
  • Informadores
  • user-avatar
    Iniciar sesión

    Tiempo cada hora Ondjiwa

    Hoy, 17 Agosto, Viernes

    Tiempo Temperatura Precipitaciones Viento Presión Humedad
    00:00 +21°C° 0 mm 2 mps 669 mmHg 20%
    01:00 +22°C° 0 mm 1 mps 669 mmHg 22%
    02:00 +20°C° 0 mm 2 mps 669 mmHg 24%
    03:00 +19°C° 0 mm 2 mps 669 mmHg 25%
    04:00 +19°C° 0 mm 2 mps 668 mmHg 27%
    05:00 +19°C° 0 mm 2 mps 669 mmHg 27%
    06:00 +19°C° 0 mm 2 mps 669 mmHg 28%
    07:00 +20°C° 0 mm 2 mps 670 mmHg 27%
    08:00 +24°C° 0 mm 2 mps 670 mmHg 23%
    09:00 +27°C° 0 mm 2 mps 671 mmHg 19%
    10:00 +31°C° 0 mm 3 mps 672 mmHg 14%
    11:00 +34°C° 0 mm 3 mps 671 mmHg 13%
    12:00 +35°C° 0 mm 3 mps 671 mmHg 11%
    13:00 +37°C° 0 mm 2 mps 670 mmHg 10%
    14:00 +37°C° 0 mm 2 mps 670 mmHg 9%
    15:00 +36°C° 0 mm 3 mps 669 mmHg 9%
    16:00 +36°C° 0 mm 3 mps 668 mmHg 9%
    17:00 +33°C° 0 mm 3 mps 668 mmHg 11%
    18:00 +30°C° 0 mm 3 mps 667 mmHg 13%
    19:00 +27°C° 0 mm 3 mps 667 mmHg 16%
    20:00 +26°C° 0 mm 3 mps 667 mmHg 17%
    21:00 +25°C° 0 mm 3 mps 667 mmHg 18%
    22:00 +24°C° 0 mm 3 mps 668 mmHg 19%
    23:00 +22°C° 0 mm 3 mps 667 mmHg 19%

    Mañana, 18 Agosto, Sábado

    Tiempo Temperatura Precipitaciones Viento Presión Humedad
    00:00 +21°C° 0 mm 3 mps 667 mmHg 20%
    01:00 +21°C° 0 mm 2 mps 667 mmHg 21%
    02:00 +20°C° 0 mm 2 mps 667 mmHg 21%
    03:00 +19°C° 0 mm 2 mps 667 mmHg 22%
    04:00 +19°C° 0 mm 2 mps 666 mmHg 22%
    05:00 +19°C° 0 mm 3 mps 667 mmHg 23%
    06:00 +18°C° 0 mm 3 mps 667 mmHg 23%
    07:00 +18°C° 0 mm 3 mps 668 mmHg 23%
    08:00 +21°C° 0 mm 4 mps 669 mmHg 20%
    09:00 +26°C° 0 mm 5 mps 670 mmHg 16%
    10:00 +29°C° 0 mm 5 mps 670 mmHg 12%
    11:00 +32°C° 0 mm 5 mps 670 mmHg 11%
    12:00 +34°C° 0 mm 5 mps 670 mmHg 9%
    13:00 +36°C° 0 mm 4 mps 669 mmHg 8%
    14:00 +36°C° 0 mm 4 mps 669 mmHg 8%
    15:00 +36°C° 0 mm 3 mps 668 mmHg 7%
    16:00 +36°C° 0 mm 3 mps 668 mmHg 7%
    17:00 +32°C° 0 mm 2 mps 667 mmHg 9%
    18:00 +29°C° 0 mm 2 mps 667 mmHg 11%
    19:00 +26°C° 0 mm 2 mps 667 mmHg 13%
    20:00 +25°C° 0 mm 2 mps 667 mmHg 13%
    21:00 +24°C° 0 mm 2 mps 667 mmHg 14%
    22:00 +23°C° 0 mm 2 mps 668 mmHg 15%
    23:00 +22°C° 0 mm 3 mps 668 mmHg 16%

    Pasado mañana, 19 Agosto, Domingo

    Tiempo Temperatura Precipitaciones Viento Presión Humedad
    00:00 +21°C° 0 mm 3 mps 667 mmHg 17%
    01:00 +20°C° 0 mm 3 mps 667 mmHg 17%
    02:00 +19°C° 0 mm 3 mps 667 mmHg 18%
    03:00 +19°C° 0 mm 3 mps 667 mmHg 19%
    04:00 +18°C° 0 mm 3 mps 666 mmHg 20%
    05:00 +18°C° 0 mm 3 mps 667 mmHg 20%
    06:00 +18°C° 0 mm 2 mps 667 mmHg 21%
    07:00 +17°C° 0 mm 2 mps 667 mmHg 22%
    08:00 +21°C° 0 mm 3 mps 668 mmHg 18%
    09:00 +27°C° 0 mm 3 mps 670 mmHg 14%
    10:00 +32°C° 0 mm 4 mps 671 mmHg 10%
    11:00 +34°C° 0 mm 4 mps 670 mmHg 9%
    12:00 +35°C° 0 mm 3 mps 670 mmHg 8%
    13:00 +37°C° 0 mm 3 mps 669 mmHg 6%
    14:00 +37°C° 0 mm 2 mps 668 mmHg 6%
    15:00 +37°C° 0 mm 2 mps 668 mmHg 6%
    16:00 +36°C° 0 mm 1 mps 667 mmHg 6%
    17:00 +33°C° 0 mm 1 mps 667 mmHg 7%
    18:00 +30°C° 0 mm 2 mps 667 mmHg 8%
    19:00 +27°C° 0 mm 2 mps 666 mmHg 10%
    20:00 +26°C° 0 mm 2 mps 667 mmHg 11%
    21:00 +24°C° 0 mm 2 mps 667 mmHg 12%
    22:00 +23°C° 0 mm 2 mps 668 mmHg 13%
    23:00 +21°C° 0 mm 2 mps 667 mmHg 14%

    20 Agosto, Lunes

    Tiempo Temperatura Precipitaciones Viento Presión Humedad
    00:00 +21°C° 0 mm 2 mps 667 mmHg 15%
    01:00 +20°C° 0 mm 2 mps 667 mmHg 16%
    02:00 +19°C° 0 mm 2 mps 667 mmHg 17%
    03:00 +18°C° 0 mm 2 mps 667 mmHg 18%
    04:00 +18°C° 0 mm 2 mps 667 mmHg 19%
    05:00 +18°C° 0 mm 2 mps 667 mmHg 20%
    06:00 +19°C° 0 mm 1 mps 668 mmHg 20%
    07:00 +19°C° 0 mm 1 mps 668 mmHg 21%
    08:00 +23°C° 0 mm 1 mps 669 mmHg 17%
    09:00 +27°C° 0 mm 2 mps 670 mmHg 14%
    10:00 +31°C° 0 mm 2 mps 671 mmHg 10%
    11:00 +34°C° 0 mm 2 mps 670 mmHg 9%
    12:00 +35°C° 0 mm 2 mps 670 mmHg 8%
    13:00 +37°C° 0 mm 2 mps 669 mmHg 7%
    14:00 +36°C° 0 mm 1 mps 668 mmHg 7%
    15:00 +36°C° 0 mm 1 mps 668 mmHg 7%
    16:00 +34°C° 0 mm 0 mps 667 mmHg 7%
    17:00 +33°C° 0 mm 1 mps 667 mmHg 8%
    18:00 +30°C° 0 mm 1 mps 667 mmHg 10%
    19:00 +27°C° 0 mm 2 mps 666 mmHg 11%
    20:00 +26°C° 0 mm 2 mps 667 mmHg 12%
    21:00 +25°C° 0 mm 3 mps 667 mmHg 13%
    22:00 +24°C° 0 mm 3 mps 668 mmHg 14%
    23:00 +22°C° 0 mm 3 mps 667 mmHg 16%

    21 Agosto, Martes

    Tiempo Temperatura Precipitaciones Viento Presión Humedad
    00:00 +21°C° 0 mm 3 mps 667 mmHg 19%
    01:00 +20°C° 0 mm 3 mps 667 mmHg 21%
    02:00 +19°C° 0 mm 3 mps 666 mmHg 23%
    03:00 +18°C° 0 mm 2 mps 666 mmHg 26%
    04:00 +17°C° 0 mm 2 mps 666 mmHg 28%
    05:00 +18°C° 0 mm 1 mps 666 mmHg 29%
    06:00 +18°C° 0 mm 1 mps 667 mmHg 29%
    07:00 +18°C° 0 mm 1 mps 668 mmHg 30%
    08:00 +21°C° 0 mm 1 mps 668 mmHg 24%
    09:00 +25°C° 0 mm 2 mps 669 mmHg 18%
    10:00 +28°C° 0 mm 3 mps 670 mmHg 12%
    11:00 +30°C° 0 mm 3 mps 669 mmHg 11%
    12:00 +33°C° 0 mm 3 mps 669 mmHg 9%
    13:00 +34°C° 0 mm 3 mps 668 mmHg 8%
    14:00 +35°C° 0 mm 3 mps 668 mmHg 8%
    15:00 +35°C° 0 mm 3 mps 667 mmHg 8%
    16:00 +35°C° 0 mm 3 mps 667 mmHg 8%
    17:00 +31°C° 0 mm 3 mps 667 mmHg 10%
    18:00 +28°C° 0 mm 3 mps 667 mmHg 11%
    19:00 +26°C° 0 mm 3 mps 667 mmHg 13%
    20:00 +23°C° 0 mm 4 mps 667 mmHg 15%
    21:00 +21°C° 0 mm 4 mps 667 mmHg 18%
    22:00 +20°C° 0 mm 5 mps 668 mmHg 20%
    23:00 +18°C° 0 mm 4 mps 667 mmHg 23%

    22 Agosto, Miércoles

    Tiempo Temperatura Precipitaciones Viento Presión Humedad
    00:00 +17°C° 0 mm 4 mps 667 mmHg 27%
    01:00 +14°C° 0 mm 3 mps 667 mmHg 30%
    02:00 +14°C° 0 mm 3 mps 666 mmHg 32%
    03:00 +13°C° 0 mm 3 mps 666 mmHg 33%
    04:00 +12°C° 0 mm 3 mps 666 mmHg 35%
    05:00 +12°C° 0 mm 2 mps 666 mmHg 35%
    06:00 +12°C° 0 mm 2 mps 667 mmHg 36%
    07:00 +12°C° 0 mm 2 mps 667 mmHg 37%
    08:00 +16°C° 0 mm 2 mps 668 mmHg 28%
    09:00 +19°C° 0 mm 2 mps 669 mmHg 19%
    10:00 +23°C° 0 mm 2 mps 669 mmHg 10%
    11:00 +26°C° 0 mm 2 mps 669 mmHg 9%
    12:00 +28°C° 0 mm 2 mps 669 mmHg 7%
    13:00 +30°C° 0 mm 3 mps 668 mmHg 6%
    14:00 +30°C° 0 mm 3 mps 668 mmHg 5%
    15:00 +31°C° 0 mm 3 mps 668 mmHg 5%
    16:00 +32°C° 0 mm 4 mps 667 mmHg 5%
    17:00 +28°C° 0 mm 3 mps 667 mmHg 6%
    18:00 +25°C° 0 mm 3 mps 667 mmHg 7%
    19:00 +20°C° 0 mm 3 mps 666 mmHg 8%
    20:00 +20°C° 0 mm 2 mps 667 mmHg 8%
    21:00 +19°C° 0 mm 2 mps 667 mmHg 8%
    22:00 +18°C° 0 mm 2 mps 667 mmHg 7%
    23:00 +17°C° 0 mm 2 mps 667 mmHg 7%
    Mostrar más